Simultaneous Nadir Overpasses (SNOs) Predictions

Prediction of SNOs between AQUA and NOAA-19 Satellite Orbit:

Table of predicted SNOs for the next 14.0 days since TLE Epoch: 4/23/2022
Index Date (AQUA) Time (AQUA) Lat,Lon (AQUA) SZA (AQUA ) Date (NOAA-19) Time (NOAA-19) Lat,Lon (NOAA-19) SZA (NOAA-19 ) Distance(km) Time Diff (sec)
1 04/24/2022 06:55:06 -77.78,-121.07 114.62 04/24/2022 06:54:43 -77.79,-120.92 114.61 3.54 23
2 04/24/2022 07:44:33 77.79, 46.53 65.39 04/24/2022 07:45:37 77.81, 46.48 65.40 2.61 64
3 04/26/2022 12:28:34 77.72, -24.19 64.59 04/26/2022 12:27:38 77.73, -24.36 64.63 4.11 56
4 04/26/2022 13:18:01 -77.77, 143.24 115.37 04/26/2022 13:18:42 -77.78, 143.10 115.36 3.21 41
5 04/28/2022 18:01:57 -77.50, 73.40 116.40 04/28/2022 18:00:49 -77.44, 70.95 116.27 59.32 68
6 04/28/2022 18:51:29 77.74,-120.00 63.89 04/28/2022 18:51:36 77.76,-120.10 63.92 3.33 7
7 05/01/2022 00:24:57 -77.76, -23.43 116.78 05/01/2022 00:24:40 -77.73, -23.45 116.80 3.25 17
8 05/01/2022 01:14:24 77.79, 144.11 63.24 05/01/2022 01:15:34 77.79, 144.15 63.23 1.32 70
9 05/03/2022 05:58:24 77.74, 73.32 62.52 05/03/2022 05:57:34 77.74, 73.45 62.53 3.02 50
10 05/03/2022 06:47:51 -77.78,-119.21 117.44 05/03/2022 06:48:37 -77.78,-119.10 117.46 2.53 46
11 05/05/2022 11:31:50 -77.70, 170.12 118.17 05/05/2022 11:30:37 -77.71, 170.08 118.14 0.94 73



Historial Predications of SNOs between AQUA and NOAA-19
